Volver al catálogo

STARLINK-2606

ActivoComunicacionesVLEO
NORAD 48386·PAYLOAD·🇺🇸 United States

Lanzado May 4, 2021 desde Cape Canaveral Space Force Station

Loading…

Próximos Pases (próximas 24 horas)

TLE

ActualizadoSource: CelesTrak SupGP

Época: Sep 14, 2026, 21:23 UTC

1 48386C 21038AK  26257.89145833 -.00014290  00000+0 -45966-3 0  2573
2 48386  53.1600 185.0385 0001523  88.8243 136.4160 15.31698454    18

Sigue STARLINK-2606 en tiempo real con AllMySat

Download on the App Store